Date,TemperatureHighF,TemperatureAvgF,TemperatureLowF,DewpointHighF,DewpointAvgF,DewpointLowF,HumidityHigh,HumidityAvg,HumidityLow,PressureMaxIn,PressureMinIn,WindSpeedMaxMPH,WindSpeedAvgMPH,GustSpeedMaxMPH,PrecipitationSumIn
2013-1-1,75.2,63.9,52.7,65.0,59.8,52.0,98,87,68,30.17,30.00,8,1,0,0.00
2013-1-2,79.9,67.3,57.9,68.0,63.3,57.0,98,88,60,30.03,29.93,7,1,0,0.00
2013-1-3,74.0,65.7,58.3,69.0,64.1,58.0,100,95,82,30.10,29.98,11,2,0,0.00
2013-1-4,71.0,66.4,63.4,68.0,65.0,62.0,97,95,89,30.20,30.06,14,4,0,0.00
2013-1-5,76.2,68.6,62.2,71.0,65.9,60.0,98,91,78,30.22,30.13,13,2,0,0.39
2013-1-6,76.8,69.4,61.1,73.0,68.3,61.0,100,96,86,30.14,30.02,8,1,0,0.01
2013-1-7,74.7,68.6,65.4,69.0,65.2,-99.9,98,91,81,30.15,30.05,14,-6,0,0.09
2013-1-8,77.1,70.9,66.2,72.0,69.4,66.0,100,95,83,30.17,30.06,6,1,0,0.06
2013-1-9,79.3,73.8,68.9,74.0,71.6,68.0,99,93,82,30.25,30.14,14,3,0,0.01
2013-1-10,78.2,72.6,67.1,72.0,69.0,66.0,98,89,75,30.27,30.17,13,2,0,0.00
2013-1-11,78.0,71.0,64.4,71.0,68.1,64.0,99,91,75,30.23,30.12,14,2,0,0.00
2013-1-12,78.0,69.5,61.6,71.0,66.6,61.0,100,91,75,30.15,30.06,11,1,0,0.00
2013-1-13,77.7,70.7,63.7,69.0,66.3,63.0,98,86,71,30.11,30.03,11,2,0,0.00
2013-1-14,78.1,69.3,59.3,70.0,65.5,59.0,99,88,73,30.14,30.08,12,2,0,0.00
2013-1-15,78.2,68.9,61.1,71.0,65.6,61.0,99,89,72,30.10,30.02,14,2,0,0.00
2013-1-16,80.4,69.0,58.2,70.0,65.2,58.0,99,88,66,30.06,29.96,9,0,0,0.00
2013-1-17,82.4,69.0,55.6,71.0,63.8,49.0,98,84,59,30.03,29.86,30,6,0,0.00
2013-1-18,69.7,59.4,44.3,62.0,52.8,40.0,88,79,67,30.19,30.04,17,5,0,0.01
2013-1-19,74.6,68.0,64.4,68.0,64.4,61.0,99,88,77,30.19,30.07,14,5,0,0.26
2013-1-20,75.7,67.8,62.8,70.0,66.0,63.0,99,94,78,30.11,30.00,12,3,0,0.00
2013-1-21,73.5,67.3,62.1,71.0,65.9,61.0,98,95,88,30.03,29.93,11,1,0,0.19
2013-1-22,70.1,63.6,60.5,61.0,55.3,51.0,97,75,59,30.20,29.97,17,4,0,0.00
2013-1-23,70.8,59.6,51.2,59.0,50.9,44.0,91,74,60,30.28,30.19,12,2,0,0.00
2013-1-24,71.9,57.0,44.8,55.0,49.7,43.0,94,79,50,30.27,30.17,9,1,0,0.00
2013-1-25,75.6,61.0,51.0,60.0,54.7,49.0,97,82,49,30.25,30.13,12,2,0,0.00
2013-1-26,74.8,61.1,50.6,62.0,54.6,47.0,94,80,60,30.22,30.11,11,2,0,0.00
2013-1-27,74.2,63.5,50.8,67.0,60.0,50.0,99,89,69,30.26,30.17,11,2,0,0.00
2013-1-28,73.9,70.6,65.9,70.0,66.7,64.0,97,87,81,30.28,30.18,11,2,0,0.00
2013-1-29,77.7,69.2,61.4,71.0,66.8,61.0,100,92,77,30.19,30.06,17,2,0,0.00
2013-1-30,81.8,71.4,62.0,70.0,65.7,62.0,99,83,60,30.06,29.86,14,2,0,0.00
2013-1-31,70.5,61.8,51.4,68.0,52.4,36.0,97,74,42,30.14,29.85,17,2,0,0.08
2013-2-1,66.9,54.1,44.4,53.0,42.7,34.0,89,66,49,30.27,30.14,16,2,0,0.00
2013-2-2,71.0,57.4,42.4,58.0,50.7,40.0,96,79,59,30.23,30.07,12,2,0,0.00
2013-2-3,68.2,57.4,49.4,55.0,49.7,42.0,96,78,43,30.14,30.01,10,2,0,0.00
2013-2-4,69.2,55.5,44.3,54.0,47.5,41.0,92,76,52,30.08,29.97,9,1,0,0.00
2013-2-5,76.5,58.6,43.7,58.0,50.6,41.0,95,76,48,30.05,29.96,10,1,0,0.00
2013-2-6,77.4,65.4,53.3,69.0,61.3,53.0,99,87,69,30.06,29.97,10,2,0,0.01
2013-2-7,77.6,69.4,58.2,69.0,64.5,58.0,98,85,68,30.03,29.86,15,3,0,0.00
2013-2-8,78.6,68.1,61.4,67.0,63.8,61.0,97,87,61,30.00,29.82,8,2,0,0.00
2013-2-9,74.3,66.1,57.2,66.0,61.6,57.0,99,86,71,30.14,30.00,12,4,0,0.00
2013-2-10,75.6,69.7,66.6,63.0,60.8,59.0,83,73,63,30.23,30.13,17,5,0,0.00
2013-2-11,78.4,70.9,61.4,67.0,64.2,60.0,96,80,61,30.17,30.04,16,3,0,0.00
2013-2-12,83.7,70.8,57.8,71.0,65.7,57.0,99,85,54,30.06,29.90,12,1,0,0.00
2013-2-13,85.7,74.8,65.8,74.0,68.2,61.0,99,82,52,29.93,29.79,21,5,0,0.00
2013-2-14,72.6,64.8,60.2,69.0,62.4,60.0,99,92,80,29.99,29.86,11,2,0,1.05
2013-2-15,65.7,61.3,58.4,62.0,60.3,58.0,99,96,87,30.00,29.90,6,0,0,0.08
2013-2-16,69.8,60.9,48.3,60.0,51.3,36.0,99,73,43,30.02,29.83,30,4,0,0.00
2013-2-17,55.1,46.8,39.2,40.0,28.5,21.0,74,51,31,30.28,30.03,14,3,0,0.00
2013-2-18,66.4,54.2,40.5,54.0,42.2,26.0,91,65,50,30.30,30.18,12,2,0,0.00
2013-2-19,78.8,64.6,48.8,62.0,56.7,47.0,97,78,50,30.18,30.02,13,1,0,0.00
2013-2-20,74.1,64.8,55.3,67.0,61.4,54.0,98,89,77,30.08,29.98,11,2,0,0.00
2013-2-21,77.6,69.3,59.4,69.0,65.7,59.0,100,89,70,30.06,29.97,11,2,0,0.00
2013-2-22,79.1,71.2,60.3,73.0,68.7,60.0,100,92,80,30.05,29.96,15,3,0,0.00
2013-2-23,87.0,74.5,64.5,72.0,68.9,64.0,100,85,55,29.99,29.83,16,2,0,0.00
2013-2-24,85.8,72.2,66.8,73.0,68.9,66.0,99,90,53,29.93,29.85,14,3,0,0.06
2013-2-25,85.4,75.0,68.9,74.0,70.9,66.0,100,88,55,29.86,29.73,14,2,0,0.00
2013-2-26,83.6,75.7,68.7,74.0,70.4,65.0,98,84,64,29.81,29.71,19,4,0,0.01
2013-2-27,76.6,66.2,57.9,65.0,62.1,57.0,99,87,63,29.91,29.82,10,1,0,0.01
2013-2-28,74.9,61.8,50.0,55.0,51.9,48.0,97,72,45,29.96,29.82,10,2,0,0.00
2013-3-1,69.3,58.9,54.9,52.0,46.6,41.0,82,65,38,29.93,29.85,12,1,0,0.00
2013-3-2,61.1,52.9,39.7,44.0,38.8,35.0,89,60,45,29.98,29.90,16,3,0,0.00
2013-3-3,59.7,47.5,37.7,39.0,35.7,32.0,92,66,42,30.11,29.91,23,4,0,0.00
2013-3-4,61.8,49.4,34.9,48.0,37.7,29.0,91,67,36,30.19,30.08,14,2,0,0.00
2013-3-5,73.9,58.9,42.0,61.0,51.1,41.0,97,78,45,30.13,29.99,14,1,0,0.00
2013-3-6,72.0,61.0,47.9,62.0,45.1,30.0,99,62,23,30.07,29.89,25,7,0,0.00
2013-3-7,65.9,54.1,42.9,54.0,44.6,34.0,94,71,59,30.14,30.04,13,2,0,0.00
2013-3-8,69.0,58.6,45.4,55.0,49.7,45.0,97,74,50,30.17,30.08,13,2,0,0.00
2013-3-9,72.4,62.3,50.1,58.0,53.4,48.0,94,74,57,30.17,30.07,11,2,0,0.00
2013-3-10,74.8,67.3,57.0,61.0,58.2,54.0,90,73,59,30.13,30.05,12,3,0,0.00
2013-3-11,75.6,68.2,58.2,64.0,60.5,57.0,95,77,60,30.08,29.90,17,2,0,0.00
2013-3-12,76.4,69.6,62.3,70.0,65.4,59.0,94,86,73,29.96,29.84,13,2,0,0.01
2013-3-13,71.0,60.7,50.8,59.0,53.4,48.0,96,78,52,30.09,29.95,18,3,0,0.00
2013-3-14,65.0,55.9,47.5,51.0,46.0,38.0,90,70,51,30.18,30.07,15,3,0,0.00
2013-3-15,67.8,56.3,44.2,52.0,46.5,41.0,94,72,52,30.23,30.11,9,1,0,0.00
2013-3-16,74.1,59.7,43.9,57.0,50.4,43.0,97,75,41,30.16,30.02,10,1,0,0.00
2013-3-17,74.7,64.1,48.3,62.0,56.3,47.0,96,77,58,30.11,29.97,10,2,0,0.00
2013-3-18,80.5,71.5,62.0,69.0,63.9,60.0,96,78,60,30.03,29.86,13,2,0,0.03
2013-3-19,79.0,69.1,62.7,69.0,65.7,62.0,100,89,68,29.96,29.84,7,1,0,0.00
2013-3-20,80.8,70.3,62.6,71.0,64.8,60.0,100,84,53,29.92,29.74,14,2,0,0.00
2013-3-21,68.1,60.4,48.6,61.0,49.2,40.0,95,70,38,29.91,29.78,15,2,0,0.00
2013-3-22,75.3,61.7,43.8,66.0,54.0,42.0,94,78,53,29.97,29.86,9,2,0,0.02
2013-3-23,88.1,76.0,66.7,75.0,69.4,66.0,100,81,59,29.93,29.71,16,2,0,0.11
2013-3-24,88.9,74.2,66.1,75.0,69.1,65.0,97,85,53,29.82,29.59,23,7,0,0.17
2013-3-25,77.9,68.8,55.2,71.0,52.3,32.0,99,64,22,29.96,29.68,20,4,0,0.00
2013-3-26,66.1,55.4,45.0,43.0,33.7,27.0,70,46,24,30.17,29.96,15,4,0,0.00
2013-3-27,63.4,51.7,42.5,44.0,39.0,33.0,86,63,44,30.23,30.14,10,2,0,0.00
2013-3-28,67.9,56.4,43.8,49.0,44.5,40.0,92,67,39,30.24,30.14,11,2,0,0.00
2013-3-29,73.1,61.7,49.4,53.0,49.8,45.0,89,67,46,30.27,30.17,11,2,0,0.00
2013-3-30,74.8,62.9,48.5,57.0,52.8,47.0,96,72,50,30.21,30.10,16,2,0,0.00
2013-3-31,80.9,67.2,53.2,66.0,59.8,51.0,96,78,49,30.14,29.97,16,2,0,0.00
2013-4-1,85.0,72.0,62.3,71.0,64.8,62.0,99,80,49,30.00,29.86,17,3,0,0.08
2013-4-2,78.3,70.6,63.0,69.0,65.4,62.0,98,84,57,30.03,29.94,12,3,0,0.00
2013-4-3,81.4,73.8,68.6,71.0,68.6,66.0,93,84,69,30.03,29.93,15,3,0,0.00
2013-4-4,73.9,70.9,66.3,72.0,69.4,66.0,98,94,89,30.00,29.85,16,2,0,0.24
2013-4-5,75.0,68.1,63.8,72.0,65.7,61.0,98,92,81,29.89,29.73,18,3,0,0.35
2013-4-6,76.7,67.8,55.8,68.0,61.8,54.0,95,82,64,30.07,29.90,13,4,0,0.01
2013-4-7,77.6,71.6,65.2,66.0,63.1,61.0,92,75,62,30.11,30.00,10,3,0,0.00
2013-4-8,79.3,69.5,57.8,69.0,64.1,57.0,98,84,64,30.10,30.02,10,1,0,0.00
2013-4-9,79.4,73.3,66.2,69.0,67.0,64.0,98,81,65,30.14,30.02,12,3,0,0.00
2013-4-10,81.4,74.7,66.9,74.0,70.1,66.0,97,86,71,30.08,29.96,16,3,0,0.00
2013-4-11,82.1,76.8,72.8,74.0,72.2,71.0,95,86,74,29.97,29.82,17,4,0,0.00
2013-4-12,90.8,79.8,73.0,77.0,72.8,69.0,98,81,54,29.88,29.77,21,3,0,0.01
2013-4-13,87.2,75.1,71.6,77.0,71.6,69.0,97,89,68,29.93,29.83,15,2,0,0.00
2013-4-14,85.2,77.1,73.0,77.0,74.2,71.0,97,91,76,29.93,29.80,18,3,0,0.77
2013-4-15,84.5,73.8,65.0,77.0,70.4,65.0,99,89,69,30.02,29.88,17,2,0,0.12
2013-4-16,82.6,76.9,71.6,76.0,72.9,69.0,98,88,75,30.09,29.99,14,3,0,0.00
2013-4-17,81.9,75.9,71.6,72.0,69.1,67.0,88,80,68,30.08,30.00,11,3,0,0.00
2013-4-18,84.7,76.3,66.5,76.0,71.1,66.0,98,84,72,30.02,29.93,12,2,0,0.00
2013-4-19,86.2,78.5,72.6,76.0,73.6,71.0,95,85,69,29.99,29.88,14,2,0,0.00
2013-4-20,80.2,72.0,67.8,77.0,69.6,66.0,99,92,84,30.06,29.91,17,3,0,0.30
2013-4-21,80.7,73.3,67.7,74.0,70.5,65.0,97,91,77,30.07,29.96,11,3,0,0.07
2013-4-22,78.9,72.3,68.8,73.0,69.8,67.0,99,92,74,30.02,29.93,18,2,0,0.11
2013-4-23,80.3,73.9,66.9,70.0,67.6,63.0,98,81,64,30.06,29.93,17,5,0,0.00
2013-4-24,79.9,74.3,69.4,67.0,64.4,62.0,80,72,61,30.10,30.00,8,2,0,0.00
2013-4-25,81.2,73.9,63.8,69.0,66.0,62.0,94,77,61,30.14,30.04,8,2,0,0.00
2013-4-26,81.0,73.7,64.2,73.0,67.9,62.0,96,82,70,30.19,30.09,10,3,0,0.00
2013-4-27,82.3,75.5,69.4,70.0,67.7,66.0,90,77,64,30.17,30.07,11,4,0,0.00
2013-4-28,81.9,75.8,72.1,69.0,66.0,64.0,79,72,61,30.09,29.96,17,4,0,0.00
2013-4-29,82.7,76.2,69.9,72.0,68.8,66.0,94,78,65,29.99,29.87,15,3,0,0.00
2013-4-30,80.3,73.3,68.8,75.0,71.0,68.0,98,92,81,29.96,29.88,13,1,0,0.24
2013-5-1,80.0,73.0,68.2,74.0,70.6,68.0,99,92,79,29.96,29.88,9,1,0,0.33
2013-5-2,75.9,71.4,66.4,73.0,70.0,66.0,99,95,87,29.90,29.77,20,4,0,1.54
2013-5-3,84.5,74.9,68.9,74.0,70.4,67.0,97,86,64,29.79,29.60,9,2,0,0.01
2013-5-4,85.4,74.4,65.7,72.0,68.6,65.0,98,83,59,29.74,29.62,13,1,0,0.00
2013-5-5,80.3,72.3,63.5,69.0,58.2,47.0,97,66,31,29.87,29.68,15,3,0,0.00
2013-5-6,81.9,69.9,58.3,67.0,58.4,53.0,94,69,46,29.94,29.85,13,2,0,0.00
2013-5-7,81.3,68.2,52.8,61.0,57.4,52.0,98,71,47,30.00,29.91,16,3,0,0.00
2013-5-8,81.0,69.7,58.7,69.0,62.7,57.0,97,79,54,30.08,29.97,10,1,0,0.00
2013-5-9,79.0,72.3,62.9,72.0,67.0,60.0,93,83,73,30.11,30.03,12,3,0,0.00
2013-5-10,86.2,76.3,67.9,77.0,71.9,67.0,99,87,65,30.08,29.96,14,3,0,0.14
2013-5-11,91.6,76.3,69.1,77.0,71.5,68.0,99,86,49,30.02,29.88,13,2,0,0.59
2013-5-12,88.4,76.3,69.0,77.0,72.7,69.0,99,89,66,29.98,29.88,14,1,0,0.05
2013-5-13,76.4,70.2,66.7,72.0,68.0,66.0,97,92,81,30.03,29.93,2,0,0,0.01
2013-6-13,91.7,84.8,72.4,77.0,73.7,70.0,93,70,57,30.04,29.91,11,2,16,0.00
2013-6-14,94.2,83.6,74.7,76.0,73.0,70.0,93,72,49,29.95,29.85,15,3,18,0.00
2013-6-15,89.4,81.7,73.7,79.0,74.7,70.0,92,80,67,30.06,29.91,11,3,16,0.00
2013-6-16,87.9,82.4,76.2,78.0,76.0,74.0,93,81,68,30.09,30.03,12,4,16,0.07
2013-6-17,91.5,83.5,75.6,78.0,75.7,72.0,92,78,59,30.09,29.99,14,2,16,0.00
2013-6-18,93.1,83.8,76.5,78.0,75.3,73.0,92,76,52,30.07,29.97,12,2,18,0.00
2013-6-19,93.5,81.3,71.2,78.0,72.5,66.0,92,76,49,30.05,29.97,18,3,30,0.24
2013-6-20,89.6,77.7,73.1,79.0,73.2,70.0,94,87,60,30.09,30.02,7,1,13,0.51
2013-6-21,85.0,77.1,71.7,80.0,73.1,70.0,94,87,71,30.14,30.03,6,0,11,0.02
2013-6-22,87.6,80.3,71.8,77.0,73.6,69.0,95,80,66,30.12,30.05,9,2,15,0.01
2013-6-23,88.3,80.9,73.9,78.0,74.6,70.0,92,81,68,30.15,30.06,11,3,15,0.00
2013-6-24,87.6,82.3,74.8,77.0,74.7,72.0,92,78,67,30.19,30.09,13,4,16,0.00
2013-6-25,88.6,82.5,77.3,78.0,75.4,73.0,89,79,68,30.16,30.05,11,3,16,0.00
2013-6-26,88.5,78.9,74.7,78.0,75.3,73.0,95,89,68,30.10,30.01,8,1,16,0.32
2013-6-27,88.7,80.1,72.1,82.0,75.2,71.0,95,85,67,30.06,29.94,12,2,14,0.04
2013-6-28,94.4,81.1,72.5,77.0,72.7,69.0,92,77,49,29.98,29.84,16,2,20,0.00
2013-6-29,93.5,78.7,72.7,78.0,73.1,70.0,94,84,54,29.89,29.81,16,1,23,0.56
2013-6-30,86.9,77.1,73.3,79.0,74.1,71.0,95,90,72,29.93,29.84,12,0,22,1.21
2013-7-1,89.3,76.7,73.0,80.0,73.9,70.0,95,91,70,30.05,29.89,16,1,26,1.34
2013-7-2,87.4,77.7,73.2,81.0,75.0,72.0,95,91,78,30.10,29.98,8,1,15,0.09
2013-7-3,88.1,80.5,74.6,80.0,75.6,73.0,95,85,71,30.14,30.06,17,3,24,0.00
2013-7-4,88.5,80.9,73.5,79.0,75.4,71.0,95,84,71,30.16,30.08,18,3,20,0.18
2013-7-5,87.9,80.4,73.7,79.0,75.2,71.0,95,84,70,30.16,30.07,17,3,23,0.13
2013-7-6,87.4,80.8,75.7,78.0,74.9,73.0,91,82,70,30.14,30.07,13,3,23,0.02
2013-7-7,87.0,81.1,74.6,78.0,75.6,72.0,94,84,70,30.13,30.05,12,3,20,0.01
2013-7-8,88.3,81.7,75.4,79.0,75.5,73.0,94,82,68,30.16,30.09,11,2,14,0.01
2013-7-9,86.0,79.8,76.1,78.0,74.9,72.0,93,85,74,30.18,30.06,11,2,19,0.20
2013-7-10,85.9,80.2,73.2,78.0,74.2,71.0,94,82,69,30.09,29.99,10,2,16,0.00
2013-7-11,89.6,80.3,74.2,79.0,74.4,71.0,94,82,66,30.05,29.94,12,1,18,0.00
2013-7-12,89.4,77.8,71.7,80.0,73.3,69.0,94,86,68,29.96,29.89,9,1,19,1.39
2013-7-13,87.8,76.7,71.4,80.0,73.4,70.0,95,90,69,30.01,29.92,11,1,16,0.06
2013-7-14,85.4,75.9,70.8,77.0,72.2,69.0,95,89,74,30.10,29.99,14,1,19,0.26
2013-7-15,85.8,77.6,71.2,79.0,73.7,69.0,95,88,77,30.12,30.03,9,2,15,0.01
2013-7-16,86.8,77.7,73.7,77.0,73.5,71.0,94,87,72,30.16,30.08,17,2,24,0.93
2013-7-17,83.6,77.6,73.2,78.0,74.2,70.0,95,89,77,30.14,30.07,8,1,17,0.28
2013-7-18,85.4,77.9,73.5,77.0,74.1,72.0,95,88,73,30.13,30.05,11,2,15,0.16
2013-7-19,88.3,79.4,72.9,80.0,75.0,71.0,95,87,74,30.14,30.04,17,2,19,0.01
2013-7-20,87.7,78.3,73.5,80.0,75.4,70.0,95,90,77,30.11,30.03,11,1,17,0.12
2013-7-21,90.3,78.5,72.0,79.0,74.0,69.0,94,87,65,30.14,30.03,16,1,24,0.50
2013-7-22,93.8,80.2,72.0,79.0,73.7,70.0,94,82,53,30.14,30.05,9,1,15,0.01
2013-7-23,94.4,81.9,74.1,78.0,74.2,72.0,94,79,51,30.10,29.96,13,2,19,0.01
2013-7-24,90.2,78.6,73.2,77.0,74.1,70.0,94,86,62,30.01,29.90,11,2,17,0.75
2013-7-25,85.2,78.7,75.3,79.0,75.1,73.0,94,89,78,30.00,29.89,7,0,18,0.31
2013-7-26,87.2,79.9,74.6,80.0,75.9,73.0,95,88,77,30.00,29.95,8,1,14,0.12
2013-7-27,88.5,81.2,74.1,81.0,76.3,72.0,95,85,73,29.99,29.91,9,1,15,0.00
2013-7-28,88.8,79.7,72.9,79.0,75.3,69.0,94,86,70,30.06,29.93,13,1,21,0.96
2013-7-29,89.5,80.3,72.7,82.0,75.6,71.0,95,86,74,30.15,30.03,7,0,12,0.00
2013-7-30,89.4,81.5,75.1,81.0,76.7,73.0,95,86,73,30.17,30.10,13,1,16,0.00
2013-7-31,89.9,83.6,77.1,80.0,76.9,74.0,94,81,64,30.12,30.01,9,2,16,0.00
2013-8-1,89.3,81.9,74.7,79.0,75.1,72.0,95,80,63,30.07,29.96,13,2,15,0.00
2013-8-2,89.7,81.7,74.9,79.0,75.1,72.0,94,81,66,30.03,29.93,12,2,16,0.00
2013-8-3,84.6,78.0,73.7,79.0,74.3,72.0,93,88,73,30.11,30.01,9,1,18,0.12
2013-8-4,92.6,81.0,74.5,82.0,76.2,73.0,95,86,68,30.09,29.98,10,2,18,0.00
2013-8-5,92.6,80.7,75.0,82.0,76.2,72.0,94,86,62,30.02,29.92,7,2,16,0.55
2013-8-6,88.2,80.8,73.3,82.0,76.5,72.0,95,87,76,29.98,29.90,8,1,10,0.00
2013-8-7,90.5,83.7,77.8,80.0,77.4,76.0,94,82,67,29.99,29.91,12,2,18,0.01
2013-8-8,90.4,83.7,77.2,79.0,76.8,75.0,94,80,65,30.04,29.95,12,3,19,0.00
2013-8-9,89.8,83.7,78.4,79.0,75.5,72.0,86,77,66,30.07,29.97,15,3,20,0.00
2013-8-10,91.3,83.5,75.7,79.0,76.5,72.0,94,80,64,30.13,30.05,12,3,16,0.00
2013-8-11,89.8,83.4,78.1,78.0,76.4,74.0,93,80,65,30.15,30.08,10,2,14,0.00
2013-8-12,91.0,82.2,73.4,79.0,75.2,71.0,94,80,65,30.12,30.02,10,2,14,0.00
2013-8-13,90.6,82.8,74.6,80.0,75.8,72.0,94,80,66,30.06,29.95,15,2,15,0.00
2013-8-14,93.3,83.3,75.9,78.0,74.9,72.0,92,77,57,30.02,29.91,13,2,18,0.00
2013-8-15,90.4,81.6,75.2,78.0,75.3,72.0,93,82,63,30.04,29.95,9,1,15,0.00
2013-8-16,91.8,83.1,76.9,79.0,76.5,75.0,92,81,64,30.05,29.97,12,2,17,0.00
2013-8-17,91.9,84.1,78.2,81.0,77.6,76.0,94,81,65,30.09,30.01,16,3,19,0.00
2013-8-18,90.4,84.2,77.9,79.0,77.1,74.0,90,80,66,30.10,30.02,14,4,19,0.00
2013-8-19,91.7,84.2,79.0,79.0,77.1,75.0,91,79,61,30.09,29.97,11,3,18,0.00
2013-8-20,90.8,83.8,77.4,79.0,76.7,73.0,91,80,63,30.09,30.00,15,3,16,0.15
2013-8-21,90.0,82.5,77.4,80.0,77.5,74.0,93,85,71,30.11,30.02,12,4,19,0.58
2013-8-22,90.2,83.2,77.2,81.0,77.9,75.0,94,84,69,30.08,29.98,10,3,17,0.02
2013-8-23,87.9,81.8,76.8,82.0,77.1,74.0,94,86,71,30.02,29.95,11,2,20,0.26
2013-8-24,89.7,81.6,75.5,81.0,76.5,73.0,95,85,71,30.09,29.99,20,3,28,0.05
2013-8-25,85.2,80.4,77.3,78.0,76.0,75.0,93,86,76,30.16,30.06,11,2,14,0.05
2013-8-26,88.8,81.9,75.4,80.0,75.7,73.0,94,82,67,30.13,30.02,12,2,15,0.01
2013-8-27,87.9,80.8,74.3,76.0,73.1,70.0,94,78,63,30.05,29.99,13,4,20,0.63
2013-8-28,89.2,81.5,77.1,79.0,74.3,71.0,89,79,66,30.05,29.97,11,2,16,0.00
2013-8-29,88.8,81.6,73.2,78.0,74.4,71.0,93,79,65,30.03,29.94,9,2,13,0.00
2013-8-30,89.1,81.8,74.3,78.0,74.8,72.0,94,80,65,30.00,29.90,9,2,14,0.00
2013-8-31,91.7,80.3,74.5,79.0,74.2,70.0,94,82,58,29.98,29.90,13,2,27,0.00
2013-9-1,92.4,79.6,71.9,79.0,73.0,69.0,94,81,61,30.00,29.92,10,1,12,0.00
2013-9-2,92.3,77.5,71.7,79.0,72.6,69.0,94,85,62,30.02,29.92,25,1,35,0.91
2013-9-3,88.0,79.1,72.2,78.0,74.3,70.0,95,86,68,30.02,29.94,9,0,10,0.00
2013-9-4,91.1,81.5,74.6,82.0,76.8,72.0,95,86,70,30.08,29.97,8,1,11,0.00
2013-9-5,90.0,83.6,78.4,82.0,78.0,76.0,93,83,70,30.09,30.01,9,2,12,0.00
2013-9-6,89.7,81.5,75.6,80.0,76.7,74.0,94,85,71,30.05,29.96,12,2,18,0.02
2013-9-7,88.3,79.9,73.0,79.0,75.3,71.0,95,86,72,30.00,29.91,10,1,12,0.59
2013-9-8,89.2,79.8,73.2,79.0,74.9,71.0,95,85,68,29.96,29.88,12,2,14,0.00
2013-9-9,89.6,80.9,72.8,78.0,74.6,71.0,95,82,66,30.02,29.91,13,3,15,0.12
2013-9-10,90.1,83.1,75.0,78.0,74.3,70.0,90,75,62,30.08,29.98,17,4,21,0.05
2013-9-11,84.4,79.7,73.8,79.0,74.9,71.0,94,85,77,30.07,30.00,12,2,19,0.74
2013-9-12,80.5,76.9,73.8,77.0,74.3,72.0,95,92,82,30.02,29.90,2,0,10,0.05
2013-9-13,88.6,78.7,71.0,80.0,74.2,70.0,95,86,71,29.91,29.80,9,1,12,0.00
2013-9-14,88.2,81.1,73.5,79.0,75.5,72.0,95,83,69,29.97,29.83,8,1,11,0.00
2013-9-15,90.3,79.0,72.5,80.0,75.2,71.0,95,88,72,30.08,29.95,9,1,26,1.17
2013-9-16,87.2,79.1,73.5,79.0,74.9,72.0,95,87,77,30.07,29.99,19,2,21,0.01
2013-9-17,87.8,78.5,74.7,80.0,74.6,72.0,94,88,75,30.06,29.96,14,2,19,0.51
2013-9-18,88.0,80.4,74.7,79.0,75.5,73.0,94,85,73,30.02,29.94,15,3,21,0.41
2013-9-19,87.3,79.8,75.6,77.0,74.4,70.0,94,84,69,30.03,29.95,12,4,20,0.69
2013-9-20,86.3,80.3,75.1,72.0,70.1,68.0,83,71,60,30.02,29.91,13,2,18,0.00
2013-9-21,85.4,78.5,71.4,74.0,71.5,69.0,94,80,64,29.93,29.78,7,1,13,0.00
2013-9-22,92.2,80.2,72.2,77.0,72.7,70.0,94,79,55,29.86,29.75,13,2,17,0.00
2013-9-23,87.2,77.2,73.2,78.0,74.1,71.0,95,90,72,29.98,29.84,7,0,12,3.60
2013-9-24,85.5,78.3,74.9,80.0,75.2,71.0,95,90,78,29.96,29.84,10,1,16,0.02
2013-9-25,86.8,78.2,73.3,76.0,72.0,70.0,93,82,61,29.86,29.78,16,3,27,0.00
2013-9-26,91.5,81.1,74.4,78.0,74.5,72.0,94,81,58,29.84,29.76,16,3,23,0.00
2013-9-27,86.3,77.3,70.8,76.0,72.2,69.0,95,85,64,29.94,29.82,10,2,18,0.04
2013-9-28,85.6,78.1,71.6,76.0,71.6,69.0,95,81,65,29.98,29.89,12,2,17,0.21
2013-9-29,86.2,78.9,70.7,75.0,71.0,68.0,92,77,63,29.98,29.90,10,1,13,0.00
2013-9-30,86.0,77.6,69.4,75.0,71.3,68.0,95,82,66,30.02,29.91,6,0,11,0.00
2013-10-1,88.3,79.1,70.7,76.0,71.8,69.0,95,79,62,30.05,29.96,11,2,13,0.00
2013-10-2,87.7,81.1,77.3,75.0,72.1,69.0,83,74,63,30.05,29.99,12,2,15,0.00
2013-10-3,87.5,80.2,71.7,75.0,71.8,69.0,90,76,64,30.07,29.97,9,1,12,0.00
2013-10-4,87.5,80.4,72.8,74.0,71.6,69.0,90,75,61,30.07,30.00,10,1,11,0.00
2013-10-5,87.1,80.3,71.1,76.0,72.8,68.0,92,78,65,30.04,29.95,16,2,16,0.00
2013-10-6,88.8,79.9,72.4,76.0,73.2,70.0,93,81,61,29.97,29.88,7,1,11,0.00
2013-10-7,87.1,76.3,73.3,75.0,72.3,71.0,93,87,62,29.88,29.79,10,1,19,0.21
2013-10-8,89.5,79.4,73.5,76.0,72.2,69.0,95,80,55,29.91,29.80,10,2,16,0.00
2013-10-9,84.3,77.6,73.5,76.0,72.7,70.0,94,85,71,30.00,29.88,15,3,20,0.18
2013-10-10,85.4,76.1,67.9,75.0,69.0,65.0,94,79,64,30.04,29.96,13,2,17,0.00
2013-10-11,85.0,74.6,63.8,70.0,65.2,61.0,93,74,53,30.04,29.95,9,0,12,0.00
2013-10-12,88.6,76.3,68.2,71.0,67.5,65.0,92,75,49,30.04,29.96,7,0,12,0.00
2013-10-13,85.7,75.7,65.6,69.0,65.9,63.0,91,73,50,30.07,29.98,11,1,16,0.00
2013-10-14,86.2,76.5,68.4,74.0,68.9,65.0,92,78,65,30.02,29.93,17,1,17,0.00
2013-10-15,84.2,75.2,68.8,74.0,69.7,66.0,94,83,68,29.98,29.88,6,0,11,0.00
2013-10-16,86.0,76.8,70.1,76.0,70.6,68.0,93,82,68,29.96,29.89,10,1,16,0.00
2013-10-17,86.6,77.2,69.5,75.0,70.8,67.0,94,81,65,29.97,29.90,10,1,12,0.00
2013-10-18,86.1,77.9,69.8,76.0,71.6,67.0,94,81,68,29.99,29.91,7,1,13,0.00
2013-10-19,88.9,79.3,70.5,77.0,72.8,68.0,94,81,63,29.96,29.87,13,1,16,0.00
2013-10-20,88.6,79.7,74.7,78.0,74.5,71.0,93,84,67,29.96,29.86,9,0,13,0.09
2013-10-21,91.4,80.1,72.6,78.0,74.6,70.0,93,83,61,30.00,29.90,11,1,14,0.00
2013-10-22,91.2,82.1,76.2,77.0,74.4,71.0,92,78,53,29.95,29.81,10,1,16,0.00
2013-10-23,83.5,76.9,71.0,73.0,69.7,63.0,91,79,61,29.97,29.79,12,2,14,0.00
2013-10-24,78.6,70.6,64.2,65.0,59.4,55.0,78,68,61,30.12,29.97,12,1,17,0.00
2013-10-25,81.5,71.7,64.1,66.0,61.7,59.0,87,72,57,30.19,30.11,12,2,17,0.00
2013-10-26,80.3,72.8,63.9,64.0,59.8,56.0,78,65,51,30.18,30.08,7,1,14,0.00
2013-10-27,79.1,69.2,60.0,66.0,60.8,57.0,91,76,54,30.11,30.05,10,1,13,0.00
2013-10-28,83.8,73.7,64.3,70.0,65.1,60.0,88,75,61,30.16,30.07,12,2,15,0.00
2013-10-29,85.9,77.3,68.5,70.0,67.5,64.0,88,72,56,30.20,30.11,10,3,14,0.02
2013-10-30,85.0,78.4,71.8,70.0,67.7,66.0,87,70,58,30.22,30.10,9,2,13,0.00
2013-10-31,86.1,78.9,73.6,72.0,68.8,65.0,87,71,60,30.13,30.00,15,2,18,0.00
2013-11-1,89.8,79.3,72.5,76.0,71.5,68.0,93,78,53,30.02,29.87,14,1,16,0.00
2013-11-2,87.2,74.4,67.3,73.0,67.2,62.0,94,79,53,29.94,29.81,15,1,22,0.00
2013-11-3,80.2,71.6,64.2,63.0,57.1,53.0,82,62,40,30.07,29.92,16,3,22,0.00
2013-11-4,80.3,75.4,70.3,67.0,61.1,52.0,86,62,49,30.13,30.05,17,7,27,0.01
2013-11-5,83.1,77.4,73.2,72.0,68.3,65.0,83,74,63,30.13,30.06,17,7,28,0.02
2013-11-6,84.1,77.7,72.9,70.0,67.5,65.0,89,72,56,30.09,30.02,13,2,14,0.00
2013-11-7,81.6,74.4,69.3,74.0,69.6,66.0,94,85,73,30.03,29.94,10,1,14,0.00
2013-11-8,80.4,73.7,67.9,72.0,67.9,65.0,93,82,71,30.08,29.96,18,6,24,0.00
2013-11-9,81.4,76.3,74.0,70.0,67.8,66.0,82,75,68,30.16,30.06,14,4,20,0.00
2013-11-10,84.2,75.3,70.5,72.0,68.9,66.0,91,81,66,30.15,30.08,11,2,15,0.00
2013-11-11,82.7,75.4,69.2,72.0,69.0,67.0,93,81,66,30.15,30.07,8,2,13,0.00
2013-11-12,82.0,73.7,68.8,73.0,68.3,65.0,94,83,70,30.09,29.99,10,2,16,0.00
2013-11-13,72.7,69.2,66.6,66.0,58.6,50.0,83,69,55,30.27,30.02,21,7,31,0.00
2013-11-14,75.8,71.2,66.6,62.0,57.0,52.0,70,61,50,30.29,30.16,14,4,22,0.00
2013-11-15,79.0,74.6,70.7,68.0,64.4,59.0,80,71,62,30.18,30.07,11,3,15,0.00
2013-11-16,82.4,74.9,69.2,71.0,67.8,65.0,91,79,59,30.11,30.02,12,2,14,0.08
2013-11-17,83.9,77.0,71.9,72.0,70.6,69.0,92,81,65,30.09,30.00,11,2,16,0.00
2013-11-18,87.9,76.0,69.7,74.0,70.3,67.0,93,83,56,30.02,29.91,7,1,12,0.00
2013-11-19,78.3,73.8,70.3,72.0,68.7,66.0,93,84,71,29.95,29.86,14,2,17,0.00
2013-11-20,78.1,74.7,71.4,73.0,70.7,68.0,93,87,77,30.10,29.93,12,5,20,0.81
2013-11-21,78.2,74.8,72.2,73.0,70.4,69.0,94,86,75,30.17,30.07,15,6,23,6.06
2013-11-22,81.2,76.4,73.8,71.0,67.6,64.0,84,74,65,30.19,30.10,13,5,18,0.00
2013-11-23,80.8,74.3,65.1,68.0,65.6,62.0,90,75,61,30.10,30.00,8,1,11,0.00
2013-11-24,77.3,69.4,64.9,68.0,63.7,57.0,94,82,67,30.21,30.00,18,5,28,0.06
2013-11-25,75.3,71.4,68.9,67.0,60.1,56.0,88,68,58,30.24,30.08,15,6,24,0.02
2013-11-26,82.7,75.7,70.6,74.0,70.6,67.0,90,84,71,30.07,29.78,14,4,20,0.03
2013-11-27,75.0,68.5,50.3,73.0,60.7,44.0,92,77,55,30.14,29.73,20,6,26,0.01
2013-11-28,70.5,56.7,41.3,58.0,48.8,37.0,86,76,60,30.29,30.15,12,2,17,0.00
2013-11-29,75.6,67.8,56.4,63.0,59.2,53.0,91,75,59,30.31,30.24,18,5,24,0.00
2013-11-30,77.6,71.0,62.4,67.0,63.9,60.0,93,79,62,30.25,30.15,14,3,17,0.11
2013-12-1,70.7,67.9,65.3,68.0,65.4,64.0,94,91,84,30.15,29.96,13,1,14,0.87
2013-12-2,71.0,65.3,58.9,65.0,61.6,56.0,95,88,73,29.96,29.81,7,1,11,0.00
2013-12-3,77.5,67.3,61.3,64.0,61.2,59.0,93,82,60,30.00,29.89,6,0,11,0.00
2013-12-4,83.4,70.7,60.2,70.0,64.1,58.0,94,81,51,30.09,29.98,7,1,12,0.00
2013-12-5,81.0,71.7,62.5,71.0,66.8,60.0,94,85,67,30.18,30.09,11,1,14,0.00
2013-12-6,79.1,72.0,67.0,72.0,68.2,65.0,94,88,78,30.20,30.10,9,1,14,0.04
2013-12-7,79.4,71.5,64.2,72.0,67.4,62.0,94,87,76,30.24,30.16,6,1,9,0.00
2013-12-8,82.8,75.1,69.5,71.0,68.8,66.0,92,81,66,30.23,30.13,10,2,20,0.00
2013-12-9,83.7,73.7,66.6,73.0,67.6,63.0,94,82,60,30.19,30.10,13,1,18,0.02
2013-12-10,85.7,73.2,62.6,72.0,65.8,60.0,94,79,50,30.17,30.07,11,1,16,0.00
2013-12-11,81.2,74.6,68.4,72.0,69.2,65.0,92,84,73,30.22,30.14,9,1,13,0.00
2013-12-12,71.1,68.2,66.1,69.0,60.9,54.0,93,78,62,30.27,30.16,18,4,26,0.00
2013-12-13,75.0,70.7,67.1,63.0,57.9,54.0,73,64,54,30.25,30.14,12,3,17,0.00
2013-12-14,79.6,74.6,71.8,73.0,68.8,63.0,90,82,73,30.14,29.99,11,2,18,0.06
2013-12-15,76.5,71.0,66.6,73.0,66.7,59.0,93,86,74,30.11,29.93,15,2,17,0.00
2013-12-16,68.6,61.4,52.9,61.0,56.1,51.0,92,83,72,30.22,30.09,10,1,15,0.00
2013-12-17,73.3,61.9,51.9,65.0,58.1,50.0,99,88,70,30.24,30.15,10,2,15,0.00
2013-12-18,70.1,60.5,49.4,58.0,52.4,45.0,96,76,55,30.28,30.19,11,2,16,0.00
2013-12-19,74.7,63.5,51.6,62.0,56.8,49.0,96,80,61,30.29,30.20,8,1,12,0.00
2013-12-20,79.4,67.5,56.0,68.0,62.2,54.0,99,84,60,30.24,30.14,10,2,17,0.00
2013-12-21,80.9,72.7,65.7,75.0,70.5,65.0,99,93,81,30.18,30.09,13,2,17,0.00
2013-12-22,82.4,74.5,68.1,75.0,71.5,68.0,100,91,75,30.18,30.10,12,2,19,0.00
2013-12-23,84.0,74.5,68.7,76.0,71.4,67.0,99,90,70,30.20,30.11,9,1,13,0.00
2013-12-24,71.2,66.2,62.3,70.0,62.5,54.0,99,88,73,30.23,30.12,16,4,28,0.07
2013-12-25,75.4,70.0,66.1,63.0,60.6,57.0,78,72,63,30.24,30.16,13,4,21,0.00
2013-12-26,75.9,69.6,65.2,70.0,66.0,61.0,96,88,77,30.21,30.11,11,2,20,0.00
2013-12-27,76.5,70.7,67.6,72.0,69.1,66.0,98,94,86,30.25,30.15,13,2,16,0.07
2013-12-28,77.2,72.6,68.2,73.0,69.9,67.0,98,91,82,30.23,30.05,11,3,18,0.57
2013-12-29,80.8,75.0,71.1,76.0,72.2,70.0,99,91,79,30.06,29.90,13,2,23,0.09
2013-12-30,72.6,66.2,59.4,70.0,63.5,56.0,96,91,81,30.20,30.00,13,1,15,0.00
2013-12-31,70.8,67.8,64.7,63.0,61.5,58.0,87,80,74,30.30,30.16,12,4,19,0.00
2014-1-1,71.2,69.5,67.0,71.0,67.6,63.0,99,94,77,30.25,30.06,9,1,12,0.81
2014-1-2,83.3,72.6,63.7,73.0,68.2,64.0,100,87,65,30.05,29.85,21,3,24,0.07